TAX603 RJAA-VTBD

Flight info

Callsign TAX603
Flight time N/A
Altitude 38000
Route SAMUS Y84 HCE Y86 YULIA Y293 TONAR Y52 IGURU/N0466F400 Q13 PICHU J7 HCN G86 KAPLI DCT MADRU DCT SULUX DCT IGLEG DCT IKELA/K0856F400 A1 PAPRA/N0461F400 A1 UBL Y20 UBLOD ENDUU3A
Aircraft A333/H-SDE3GHIJ2J3J5M1RVWXY/LB2D1

Departure

Time 2026-05-07 07:07
Airport Narita International Airport (RJAA)

Arrival

Time N/A
Airport Don Mueang International Airport (VTBD)
Time Latitude Longitude Altitude Speed Heading
2026-05-07 06:30 35.76847 140.39260 147 ft 0 kts 294°
2026-05-07 06:33 35.76844 140.39267 147 ft 2 kts 294°
2026-05-07 06:33 35.76837 140.39289 147 ft 3 kts 294°
2026-05-07 06:34 35.76828 140.39312 148 ft 3 kts 294°
2026-05-07 06:34 35.76821 140.39331 148 ft 2 kts 294°
2026-05-07 06:34 35.76815 140.39352 148 ft 3 kts 270°
2026-05-07 06:34 35.76819 140.39371 148 ft 3 kts 219°
2026-05-07 06:35 35.76836 140.39383 148 ft 3 kts 202°
2026-05-07 06:35 35.76846 140.39388 148 ft 1 kts 204°
2026-05-07 06:35 35.76848 140.39389 148 ft 0 kts 204°
2026-05-07 06:40 35.76836 140.39384 148 ft 12 kts 200°
2026-05-07 06:40 35.76784 140.39357 148 ft 17 kts 206°
2026-05-07 06:40 35.76754 140.39338 148 ft 17 kts 207°
2026-05-07 06:41 35.76652 140.39279 148 ft 16 kts 205°
2026-05-07 06:41 35.76549 140.39221 148 ft 16 kts 203°
2026-05-07 06:41 35.76447 140.39167 148 ft 16 kts 204°
2026-05-07 06:41 35.76348 140.39112 148 ft 16 kts 204°
2026-05-07 06:42 35.76249 140.39058 147 ft 16 kts 204°
2026-05-07 06:42 35.76152 140.39004 148 ft 15 kts 204°
2026-05-07 06:42 35.76054 140.38951 148 ft 15 kts 204°
2026-05-07 06:42 35.75957 140.38897 148 ft 15 kts 204°
2026-05-07 06:43 35.75861 140.38843 148 ft 15 kts 205°
2026-05-07 06:43 35.75764 140.38788 148 ft 15 kts 205°
2026-05-07 06:43 35.75719 140.38733 148 ft 14 kts 238°
2026-05-07 06:44 35.75678 140.38647 148 ft 11 kts 252°
2026-05-07 06:45 35.75701 140.38602 148 ft 6 kts 315°
2026-05-07 06:45 35.75704 140.38597 148 ft 6 kts 315°
2026-05-07 06:46 35.75724 140.38574 148 ft 7 kts 316°
2026-05-07 06:46 35.75733 140.38564 148 ft 7 kts 316°
2026-05-07 06:47 35.75747 140.38546 148 ft 7 kts 312°
2026-05-07 06:47 35.75767 140.38501 148 ft 5 kts 280°
2026-05-07 06:48 35.75750 140.38461 148 ft 11 kts 240°
2026-05-07 06:48 35.75706 140.38337 148 ft 16 kts 264°
2026-05-07 06:48 35.75723 140.38301 148 ft 5 kts 338°
2026-05-07 06:48 35.75801 140.38259 148 ft 19 kts 336°
2026-05-07 06:49 35.75949 140.38162 148 ft 27 kts 329°
2026-05-07 06:49 35.75989 140.38133 148 ft 27 kts 329°
2026-05-07 06:50 35.76129 140.38033 147 ft 27 kts 330°
2026-05-07 06:50 35.76289 140.37919 147 ft 27 kts 328°
2026-05-07 06:51 35.76447 140.37798 147 ft 27 kts 330°
2026-05-07 06:51 35.76606 140.37688 147 ft 26 kts 329°
2026-05-07 06:51 35.76763 140.37575 147 ft 26 kts 329°
2026-05-07 06:51 35.76920 140.37462 147 ft 26 kts 330°
2026-05-07 06:52 35.77077 140.37349 147 ft 26 kts 329°
2026-05-07 06:52 35.77235 140.37234 147 ft 26 kts 329°
2026-05-07 06:52 35.77392 140.37121 147 ft 26 kts 330°
2026-05-07 06:52 35.77489 140.36993 147 ft 2 kts 261°
2026-05-07 06:53 35.77488 140.36992 147 ft 0 kts 261°
2026-05-07 06:56 35.77488 140.36987 147 ft 0 kts 261°
2026-05-07 07:00 35.77487 140.36983 147 ft 4 kts 259°
2026-05-07 07:00 35.77459 140.36908 147 ft 12 kts 238°
2026-05-07 07:00 35.77404 140.36836 147 ft 5 kts 207°
2026-05-07 07:01 35.77393 140.36842 147 ft 1 kts 147°
2026-05-07 07:01 35.77382 140.36851 147 ft 3 kts 147°
2026-05-07 07:01 35.77365 140.36870 146 ft 4 kts 136°
2026-05-07 07:01 35.77339 140.36899 146 ft 6 kts 139°
2026-05-07 07:02 35.77328 140.36908 146 ft 2 kts 147°
2026-05-07 07:02 35.77313 140.36918 145 ft 3 kts 156°
2026-05-07 07:02 35.77309 140.36920 145 ft 0 kts 154°
2026-05-07 07:05 35.77291 140.36933 145 ft 12 kts 150°
2026-05-07 07:06 35.77209 140.36998 145 ft 0 kts 141°
2026-05-07 07:06 35.77178 140.37020 145 ft 16 kts 150°
2026-05-07 07:06 35.76955 140.37180 146 ft 63 kts 149°
2026-05-07 07:07 35.76415 140.37568 149 ft 116 kts 149°
2026-05-07 07:07 35.75596 140.38164 151 ft 160 kts 149°
2026-05-07 07:07 35.74588 140.38885 657 ft 166 kts 153°
2026-05-07 07:07 35.73564 140.39506 1410 ft 164 kts 159°
2026-05-07 07:08 35.72526 140.40089 2158 ft 165 kts 160°
2026-05-07 07:08 35.71472 140.40684 2871 ft 167 kts 160°
2026-05-07 07:08 35.70298 140.41060 3211 ft 186 kts 176°
2026-05-07 07:08 35.68933 140.41170 3543 ft 206 kts 180°
2026-05-07 07:09 35.67522 140.41235 3835 ft 227 kts 180°
2026-05-07 07:09 35.65890 140.41306 4248 ft 240 kts 180°
2026-05-07 07:09 35.64207 140.41387 4685 ft 252 kts 181°
2026-05-07 07:09 35.62426 140.41504 5272 ft 260 kts 179°
2026-05-07 07:10 35.60597 140.41617 6014 ft 264 kts 180°
2026-05-07 07:10 35.58752 140.41728 6796 ft 267 kts 180°
2026-05-07 07:10 35.56890 140.41851 7519 ft 270 kts 180°
2026-05-07 07:10 35.55011 140.41988 8338 ft 271 kts 180°
2026-05-07 07:11 35.53114 140.42140 9119 ft 274 kts 180°
2026-05-07 07:11 35.51214 140.42271 9934 ft 273 kts 182°
2026-05-07 07:11 35.49286 140.42356 10429 ft 285 kts 182°
2026-05-07 07:11 35.47243 140.42433 10702 ft 303 kts 182°
2026-05-07 07:12 35.45071 140.42503 10978 ft 320 kts 182°
2026-05-07 07:12 35.42794 140.42569 11388 ft 332 kts 182°
2026-05-07 07:12 35.40471 140.42633 11975 ft 337 kts 182°
2026-05-07 07:12 35.38113 140.42699 12632 ft 340 kts 182°
2026-05-07 07:13 35.35736 140.42766 13289 ft 343 kts 182°
2026-05-07 07:13 35.33339 140.42833 13903 ft 347 kts 182°
2026-05-07 07:13 35.30913 140.42896 14439 ft 350 kts 182°
2026-05-07 07:13 35.28466 140.42965 15005 ft 354 kts 182°
2026-05-07 07:14 35.25996 140.43043 15576 ft 357 kts 182°
2026-05-07 07:14 35.23508 140.43130 16149 ft 360 kts 182°
2026-05-07 07:14 35.20993 140.43226 16715 ft 363 kts 182°
2026-05-07 07:14 35.18460 140.43330 17269 ft 366 kts 182°
2026-05-07 07:15 35.15907 140.43441 17819 ft 369 kts 182°
2026-05-07 07:15 35.13388 140.43554 18274 ft 373 kts 182°
2026-05-07 07:15 35.10879 140.43660 18662 ft 377 kts 182°
2026-05-07 07:15 35.08248 140.43773 19130 ft 379 kts 182°
2026-05-07 07:16 35.05604 140.43888 19605 ft 381 kts 182°
2026-05-07 07:16 35.02942 140.44007 20073 ft 384 kts 182°
2026-05-07 07:16 35.00269 140.44118 20534 ft 384 kts 186°
2026-05-07 07:16 34.97624 140.43762 21012 ft 383 kts 192°
2026-05-07 07:17 34.94987 140.43291 21459 ft 385 kts 193°
2026-05-07 07:17 34.92331 140.42777 21850 ft 388 kts 193°
2026-05-07 07:17 34.89657 140.42253 22282 ft 391 kts 193°
2026-05-07 07:17 34.86998 140.41730 22737 ft 392 kts 193°
2026-05-07 07:18 34.84294 140.41201 23188 ft 394 kts 193°
2026-05-07 07:18 34.81581 140.40670 23593 ft 397 kts 193°
2026-05-07 07:18 34.78849 140.40136 23936 ft 399 kts 193°
2026-05-07 07:18 34.76102 140.39600 24283 ft 401 kts 193°
2026-05-07 07:19 34.75068 140.39398 24414 ft 401 kts 193°
2026-05-07 07:20 34.74352 140.39258 24503 ft 402 kts 193°
2026-05-07 07:20 34.71586 140.38717 24832 ft 404 kts 193°
2026-05-07 07:20 34.68969 140.38207 25156 ft 406 kts 192°
2026-05-07 07:20 34.66271 140.37682 25487 ft 407 kts 192°
2026-05-07 07:21 34.63464 140.37136 25825 ft 409 kts 192°
2026-05-07 07:21 34.60650 140.36589 26169 ft 411 kts 192°
2026-05-07 07:21 34.57823 140.36040 26500 ft 413 kts 192°
2026-05-07 07:21 34.54979 140.35487 26833 ft 414 kts 192°
2026-05-07 07:22 34.52128 140.34934 27163 ft 416 kts 192°
2026-05-07 07:22 34.49257 140.34376 27478 ft 418 kts 192°
2026-05-07 07:22 34.46376 140.33818 27801 ft 420 kts 192°
2026-05-07 07:22 34.43481 140.33257 28127 ft 422 kts 192°
2026-05-07 07:23 34.40582 140.32696 28449 ft 424 kts 192°
2026-05-07 07:23 34.37657 140.32131 28764 ft 426 kts 192°
2026-05-07 07:23 34.34727 140.31564 29075 ft 427 kts 192°
2026-05-07 07:23 34.31794 140.30998 29380 ft 429 kts 192°
2026-05-07 07:24 34.28833 140.30426 29666 ft 431 kts 192°
2026-05-07 07:24 34.25866 140.29854 29973 ft 433 kts 192°
2026-05-07 07:24 34.22888 140.29280 30225 ft 435 kts 192°
2026-05-07 07:24 34.19890 140.28702 30453 ft 437 kts 192°
2026-05-07 07:25 34.13854 140.27541 30928 ft 441 kts 192°
2026-05-07 07:25 34.10824 140.26958 31161 ft 443 kts 192°
2026-05-07 07:25 34.07788 140.26375 31386 ft 445 kts 192°
2026-05-07 07:26 34.04733 140.25788 31632 ft 446 kts 192°
2026-05-07 07:26 34.01698 140.25207 31956 ft 446 kts 192°
2026-05-07 07:26 33.98643 140.24622 32317 ft 444 kts 192°
2026-05-07 07:26 33.95591 140.24039 32662 ft 444 kts 192°
2026-05-07 07:27 33.92551 140.23458 32989 ft 443 kts 192°
2026-05-07 07:27 33.89500 140.22875 33312 ft 442 kts 193°
2026-05-07 07:27 33.86468 140.22271 33623 ft 441 kts 195°
2026-05-07 07:27 33.83509 140.21338 33921 ft 437 kts 203°
2026-05-07 07:28 33.80873 140.19862 35237 ft 395 kts 213°
2026-05-07 07:28 33.78498 140.18166 35398 ft 403 kts 211°
2026-05-07 07:28 33.76161 140.16378 36069 ft 386 kts 219°
2026-05-07 07:28 33.74163 140.14350 36923 ft 369 kts 225°
2026-05-07 07:29 33.72446 140.12131 37169 ft 367 kts 230°
2026-05-07 07:29 33.69279 140.07234 37311 ft 371 kts 233°
2026-05-07 07:30 33.66239 140.02177 37433 ft 376 kts 234°
2026-05-07 07:30 33.63153 139.97053 37546 ft 381 kts 233°
2026-05-07 07:31 33.59998 139.91885 37654 ft 386 kts 233°
2026-05-07 07:31 33.56783 139.86654 37766 ft 392 kts 233°
2026-05-07 07:32 33.53545 139.81403 37890 ft 397 kts 233°
2026-05-07 07:32 33.50245 139.76055 37974 ft 403 kts 233°
2026-05-07 07:33 33.46876 139.70602 37970 ft 411 kts 233°
2026-05-07 07:33 33.43453 139.65068 37977 ft 414 kts 233°
2026-05-07 07:34 33.40026 139.59536 37977 ft 413 kts 232°
2026-05-07 07:34 33.36603 139.54019 37978 ft 413 kts 232°
2026-05-07 07:35 33.33178 139.48506 37976 ft 414 kts 232°
2026-05-07 07:35 33.29734 139.42972 37975 ft 415 kts 232°
2026-05-07 07:36 33.26287 139.37442 37973 ft 415 kts 232°
2026-05-07 07:36 33.22835 139.31911 37975 ft 415 kts 232°
2026-05-07 07:37 33.19383 139.26389 37977 ft 415 kts 232°
2026-05-07 07:37 33.15926 139.20868 37976 ft 415 kts 232°
2026-05-07 07:38 33.12467 139.15349 37977 ft 415 kts 232°
2026-05-07 07:38 33.09006 139.09838 37975 ft 415 kts 232°
2026-05-07 07:39 33.05562 139.04361 37979 ft 416 kts 232°
2026-05-07 07:39 33.02082 138.98836 37977 ft 417 kts 232°
2026-05-07 07:40 32.98595 138.93308 37973 ft 417 kts 232°
2026-05-07 07:40 32.95104 138.87780 37980 ft 417 kts 232°
2026-05-07 07:41 32.91612 138.82261 37980 ft 418 kts 232°
2026-05-07 07:41 32.88092 138.76705 37980 ft 422 kts 232°
2026-05-07 07:42 32.84547 138.71118 37982 ft 424 kts 232°
2026-05-07 07:42 32.80999 138.65527 37980 ft 424 kts 233°
2026-05-07 07:43 32.78137 138.59391 37980 ft 427 kts 246°
2026-05-07 07:43 32.76079 138.52746 37979 ft 429 kts 249°
2026-05-07 07:44 32.74180 138.46022 37977 ft 430 kts 249°
2026-05-07 07:44 32.72289 138.39290 37977 ft 429 kts 249°
2026-05-07 07:45 32.70377 138.32582 37974 ft 429 kts 249°
2026-05-07 07:45 32.68449 138.25882 37977 ft 429 kts 249°
2026-05-07 07:46 32.66515 138.19187 37975 ft 428 kts 249°
2026-05-07 07:46 32.64586 138.12523 37976 ft 427 kts 249°
2026-05-07 07:47 32.62668 138.05906 37978 ft 427 kts 249°
2026-05-07 07:47 32.60733 137.99248 37983 ft 427 kts 249°
2026-05-07 07:48 32.58803 137.92621 37976 ft 425 kts 249°
2026-05-07 07:48 32.56868 137.85991 37972 ft 425 kts 249°
2026-05-07 07:49 32.54931 137.79366 37976 ft 425 kts 249°
2026-05-07 07:49 32.52993 137.72756 37974 ft 425 kts 249°
2026-05-07 07:50 32.51052 137.66149 37971 ft 424 kts 249°
2026-05-07 07:50 32.49108 137.59548 37971 ft 424 kts 249°
2026-05-07 07:51 32.47161 137.52950 37971 ft 424 kts 249°
2026-05-07 07:51 32.45539 137.47465 37971 ft 425 kts 249°
2026-05-07 07:52 32.43584 137.40868 37972 ft 424 kts 249°
2026-05-07 07:52 32.41294 137.33157 37972 ft 426 kts 249°
2026-05-07 07:53 32.39658 137.27661 37972 ft 426 kts 249°
2026-05-07 07:53 32.37686 137.21048 37966 ft 426 kts 249°
2026-05-07 07:54 32.35708 137.14431 37971 ft 426 kts 249°
2026-05-07 07:54 32.33728 137.07821 37968 ft 426 kts 249°
2026-05-07 07:55 32.31744 137.01212 37963 ft 427 kts 249°
2026-05-07 07:55 32.29757 136.94609 37966 ft 428 kts 249°
2026-05-07 07:56 32.27754 136.87966 37969 ft 430 kts 249°
2026-05-07 07:56 32.25744 136.81312 37966 ft 430 kts 249°
2026-05-07 07:57 32.23736 136.74680 37962 ft 431 kts 250°
2026-05-07 07:57 32.21719 136.68032 37969 ft 434 kts 250°
2026-05-07 07:58 32.19675 136.61314 37969 ft 435 kts 250°
2026-05-07 07:58 32.17626 136.54591 37965 ft 436 kts 251°
2026-05-07 07:59 32.15556 136.47812 37960 ft 441 kts 251°
2026-05-07 07:59 32.13468 136.40992 37966 ft 443 kts 251°
2026-05-07 08:00 32.11368 136.34151 37959 ft 443 kts 251°
2026-05-07 08:00 32.09261 136.27297 37964 ft 445 kts 251°
2026-05-07 08:01 32.07142 136.20423 37963 ft 446 kts 251°
2026-05-07 08:01 32.05021 136.13559 37963 ft 446 kts 251°
2026-05-07 08:02 32.02915 136.06758 37960 ft 446 kts 251°
2026-05-07 08:02 32.00788 135.99899 37960 ft 446 kts 251°
2026-05-07 08:03 31.98656 135.93045 37957 ft 445 kts 251°
2026-05-07 08:03 31.96528 135.86217 37959 ft 444 kts 251°
2026-05-07 08:04 31.94400 135.79401 37960 ft 443 kts 251°
2026-05-07 08:04 31.92272 135.72600 37960 ft 441 kts 251°
2026-05-07 08:05 31.90149 135.65834 37961 ft 440 kts 251°
2026-05-07 08:05 31.88025 135.59073 37955 ft 440 kts 251°
2026-05-07 08:06 31.85901 135.52333 37955 ft 439 kts 251°
2026-05-07 08:06 31.83778 135.45607 37955 ft 438 kts 251°
2026-05-07 08:07 31.81691 135.39007 37956 ft 438 kts 251°
2026-05-07 08:07 31.79567 135.32308 37958 ft 436 kts 251°
2026-05-07 08:08 31.77453 135.25655 37950 ft 434 kts 251°
2026-05-07 08:08 31.75349 135.19043 37952 ft 434 kts 251°
2026-05-07 08:09 31.73228 135.12394 37954 ft 435 kts 251°
2026-05-07 08:09 31.70677 135.05958 37955 ft 437 kts 242°
2026-05-07 08:10 31.67448 134.99899 37959 ft 438 kts 239°
2026-05-07 08:10 31.64106 134.93953 37952 ft 435 kts 239°
2026-05-07 08:11 31.60765 134.88049 37952 ft 434 kts 239°
2026-05-07 08:11 31.57440 134.82148 37943 ft 434 kts 239°
2026-05-07 08:12 31.54114 134.76234 37955 ft 434 kts 239°
2026-05-07 08:12 31.50837 134.70409 37955 ft 434 kts 239°
2026-05-07 08:13 31.47507 134.64501 37952 ft 434 kts 239°
2026-05-07 08:13 31.44176 134.58602 37950 ft 434 kts 239°
2026-05-07 08:14 31.40842 134.52706 37955 ft 434 kts 239°
2026-05-07 08:14 31.37507 134.46818 37956 ft 434 kts 239°
2026-05-07 08:15 31.34195 134.40980 37956 ft 434 kts 239°
2026-05-07 08:15 31.30836 134.35067 37947 ft 433 kts 239°
2026-05-07 08:16 31.27504 134.29211 37950 ft 433 kts 239°
2026-05-07 08:16 31.24292 134.23572 37956 ft 432 kts 239°
2026-05-07 08:17 31.20958 134.17730 37951 ft 432 kts 239°
2026-05-07 08:17 31.17636 134.11916 37953 ft 433 kts 239°
2026-05-07 08:18 31.14260 134.06014 37950 ft 442 kts 238°
2026-05-07 08:18 31.10817 134.00003 37951 ft 449 kts 238°
2026-05-07 08:19 31.07317 133.93907 37949 ft 455 kts 238°
2026-05-07 08:19 31.03793 133.87784 37946 ft 454 kts 238°
2026-05-07 08:20 31.00267 133.81664 37948 ft 454 kts 238°
2026-05-07 08:20 30.96749 133.75565 37948 ft 454 kts 238°
2026-05-07 08:21 30.93227 133.69469 37946 ft 454 kts 238°
2026-05-07 08:21 30.89724 133.63413 37943 ft 454 kts 238°
2026-05-07 08:22 30.86203 133.57333 37948 ft 454 kts 238°
2026-05-07 08:22 30.82667 133.51236 37951 ft 454 kts 238°
2026-05-07 08:23 30.79135 133.45155 37951 ft 454 kts 238°
2026-05-07 08:23 30.75600 133.39080 37945 ft 453 kts 238°
2026-05-07 08:24 30.72066 133.33014 37941 ft 453 kts 238°
2026-05-07 08:24 30.68526 133.26948 37942 ft 453 kts 238°
2026-05-07 08:25 30.64987 133.20893 37939 ft 453 kts 238°
2026-05-07 08:25 30.61446 133.14844 37945 ft 452 kts 238°
2026-05-07 08:26 30.56137 133.05790 37948 ft 452 kts 238°
2026-05-07 08:26 30.52593 132.99759 37950 ft 452 kts 238°
2026-05-07 08:27 30.49061 132.93755 37931 ft 451 kts 238°
2026-05-07 08:27 30.45517 132.87740 37931 ft 451 kts 238°
2026-05-07 08:28 30.41974 132.81736 37948 ft 451 kts 238°
2026-05-07 08:28 30.38452 132.75777 37944 ft 451 kts 238°
2026-05-07 08:29 30.34905 132.69784 37951 ft 451 kts 238°
2026-05-07 08:29 30.31357 132.63799 37948 ft 451 kts 238°
2026-05-07 08:30 30.27805 132.57817 37945 ft 450 kts 238°
2026-05-07 08:30 30.24260 132.51854 37954 ft 450 kts 238°
2026-05-07 08:31 30.20711 132.45893 37953 ft 450 kts 238°
2026-05-07 08:31 30.17161 132.39940 37960 ft 450 kts 238°
2026-05-07 08:32 30.13617 132.34006 37949 ft 449 kts 239°
2026-05-07 08:32 30.10071 132.28077 37955 ft 448 kts 239°
2026-05-07 08:33 30.06528 132.22162 37955 ft 448 kts 238°
2026-05-07 08:33 30.02977 132.16241 37939 ft 448 kts 239°
2026-05-07 08:34 29.99435 132.10345 37957 ft 447 kts 239°
2026-05-07 08:34 29.95907 132.04481 37958 ft 446 kts 239°
2026-05-07 08:35 29.92351 131.98578 37959 ft 447 kts 238°
2026-05-07 08:35 29.88809 131.92707 37954 ft 446 kts 238°
2026-05-07 08:36 29.85264 131.86841 37956 ft 446 kts 238°
2026-05-07 08:36 29.81723 131.80985 37956 ft 446 kts 238°
2026-05-07 08:37 29.78194 131.75124 37965 ft 445 kts 239°
2026-05-07 08:37 29.74667 131.69257 37959 ft 445 kts 239°
2026-05-07 08:38 29.71146 131.63407 37960 ft 445 kts 239°
2026-05-07 08:38 29.68216 131.58550 37956 ft 445 kts 239°
2026-05-07 08:39 29.64094 131.51726 37948 ft 444 kts 239°
2026-05-07 08:39 29.61161 131.46879 37956 ft 444 kts 239°
2026-05-07 08:40 29.57631 131.41053 37958 ft 444 kts 239°
2026-05-07 08:40 29.54102 131.35235 37958 ft 444 kts 238°
2026-05-07 08:41 29.50575 131.29428 37941 ft 444 kts 238°
2026-05-07 08:41 29.47036 131.23612 37961 ft 445 kts 238°
2026-05-07 08:42 29.43492 131.17795 37962 ft 445 kts 238°
2026-05-07 08:42 29.39947 131.11985 37962 ft 445 kts 238°
2026-05-07 08:43 29.36396 131.06172 37955 ft 445 kts 238°
2026-05-07 08:43 29.32836 131.00354 37978 ft 446 kts 238°
2026-05-07 08:44 29.29273 130.94538 37954 ft 446 kts 238°
2026-05-07 08:44 29.25729 130.88762 37960 ft 446 kts 238°
2026-05-07 08:45 29.22158 130.82950 37980 ft 447 kts 238°
2026-05-07 08:45 29.18584 130.77142 37964 ft 447 kts 238°
2026-05-07 08:46 29.15004 130.71331 37961 ft 447 kts 238°
2026-05-07 08:46 29.11419 130.65521 37961 ft 446 kts 238°
2026-05-07 08:47 29.07840 130.59729 37969 ft 447 kts 238°
2026-05-07 08:47 29.04253 130.53930 37968 ft 447 kts 238°
2026-05-07 08:48 29.00660 130.48130 37968 ft 448 kts 238°
2026-05-07 08:48 28.97061 130.42332 37977 ft 446 kts 238°
2026-05-07 08:49 28.93474 130.36558 37969 ft 446 kts 238°
2026-05-07 08:49 28.89880 130.30780 37972 ft 447 kts 238°
2026-05-07 08:50 28.86303 130.25038 37982 ft 446 kts 238°
2026-05-07 08:50 28.82715 130.19287 37971 ft 444 kts 238°
2026-05-07 08:51 28.79132 130.13553 37975 ft 445 kts 238°
2026-05-07 08:51 28.75534 130.07801 37974 ft 446 kts 238°
2026-05-07 08:52 28.71965 130.02105 37978 ft 446 kts 238°
2026-05-07 08:52 28.68367 129.96369 37976 ft 447 kts 238°
2026-05-07 08:53 28.64753 129.90617 37971 ft 448 kts 238°
2026-05-07 08:53 28.61121 129.84843 37971 ft 448 kts 238°
2026-05-07 08:54 28.57482 129.79067 37970 ft 448 kts 237°
2026-05-07 08:54 28.53842 129.73297 37967 ft 449 kts 237°
2026-05-07 08:55 28.50201 129.67533 37967 ft 449 kts 237°
2026-05-07 08:55 28.46553 129.61767 37968 ft 449 kts 237°
2026-05-07 08:56 28.42697 129.56158 37971 ft 451 kts 233°
2026-05-07 08:56 28.38633 129.50751 37969 ft 450 kts 233°
2026-05-07 08:57 28.34531 129.45383 37973 ft 451 kts 232°
2026-05-07 08:57 28.30411 129.40001 37976 ft 452 kts 232°
2026-05-07 08:58 28.26292 129.34618 37987 ft 452 kts 232°
2026-05-07 08:58 28.22169 129.29231 37978 ft 452 kts 232°
2026-05-07 08:59 28.18043 129.23844 37979 ft 453 kts 233°
2026-05-07 08:59 28.13916 129.18463 37979 ft 453 kts 233°
2026-05-07 09:00 28.09798 129.13102 37977 ft 453 kts 233°
2026-05-07 09:00 28.05658 129.07719 37960 ft 453 kts 233°
2026-05-07 09:01 28.01513 129.02335 37980 ft 454 kts 233°
2026-05-07 09:01 27.97362 128.96952 37980 ft 454 kts 233°
2026-05-07 09:02 27.93206 128.91568 37979 ft 454 kts 233°
2026-05-07 09:02 27.89051 128.86192 37964 ft 454 kts 233°
2026-05-07 09:03 27.84893 128.80820 37980 ft 454 kts 233°
2026-05-07 09:03 27.80850 128.75603 37979 ft 454 kts 233°
2026-05-07 09:04 27.76862 128.70461 37973 ft 455 kts 233°
2026-05-07 09:04 27.72691 128.65091 37983 ft 455 kts 233°
2026-05-07 09:05 27.68539 128.59754 37964 ft 455 kts 233°
2026-05-07 09:05 27.64405 128.54447 37972 ft 454 kts 233°
2026-05-07 09:06 27.60232 128.49096 37980 ft 453 kts 233°
2026-05-07 09:06 27.56077 128.43773 37959 ft 454 kts 233°
2026-05-07 09:07 27.51897 128.38424 37987 ft 456 kts 233°
2026-05-07 09:07 27.47671 128.33025 37974 ft 456 kts 233°
2026-05-07 09:08 27.43488 128.27689 37983 ft 455 kts 233°
2026-05-07 09:08 27.39277 128.22322 37967 ft 456 kts 233°
2026-05-07 09:09 27.35203 128.17135 37968 ft 458 kts 233°
2026-05-07 09:09 27.31000 128.11793 37984 ft 457 kts 233°
2026-05-07 09:10 27.26802 128.06463 37984 ft 457 kts 233°
2026-05-07 09:10 27.22593 128.01125 37955 ft 457 kts 233°
2026-05-07 09:11 27.18386 127.95792 37968 ft 461 kts 233°
2026-05-07 09:11 27.14128 127.90406 37973 ft 460 kts 233°
2026-05-07 09:12 27.09890 127.85055 37977 ft 459 kts 233°
2026-05-07 09:12 27.05668 127.79728 37962 ft 459 kts 233°
2026-05-07 09:13 27.01445 127.74400 37985 ft 463 kts 233°
2026-05-07 09:13 26.97160 127.69006 37981 ft 464 kts 233°
2026-05-07 09:14 26.93008 127.63788 37959 ft 465 kts 233°
2026-05-07 09:14 26.88699 127.58377 37992 ft 464 kts 233°
2026-05-07 09:15 26.84395 127.52979 38009 ft 465 kts 233°
2026-05-07 09:15 26.80078 127.47572 38020 ft 466 kts 233°
2026-05-07 09:16 26.75766 127.42177 38008 ft 466 kts 233°
2026-05-07 09:16 26.71462 127.36801 37964 ft 465 kts 233°
2026-05-07 09:17 26.67107 127.31363 37957 ft 467 kts 233°
2026-05-07 09:17 26.62830 127.26031 37957 ft 468 kts 233°
2026-05-07 09:18 26.58452 127.20582 37980 ft 468 kts 233°
2026-05-07 09:18 26.54106 127.15180 37979 ft 467 kts 233°
2026-05-07 09:19 26.49720 127.09731 37972 ft 469 kts 233°
2026-05-07 09:19 26.45549 127.04557 37975 ft 469 kts 233°
2026-05-07 09:20 26.41199 126.99168 37975 ft 470 kts 233°
2026-05-07 09:20 26.36838 126.93773 37969 ft 470 kts 233°
2026-05-07 09:21 26.32444 126.88340 37972 ft 471 kts 233°
2026-05-07 09:21 26.28039 126.82902 37980 ft 472 kts 233°
2026-05-07 09:22 26.23662 126.77507 37971 ft 472 kts 233°
2026-05-07 09:22 26.19244 126.72070 37979 ft 471 kts 233°
2026-05-07 09:23 26.14842 126.66653 37968 ft 474 kts 233°
2026-05-07 09:23 26.10407 126.61204 37966 ft 474 kts 233°
2026-05-07 09:24 26.05961 126.55750 37964 ft 475 kts 233°
2026-05-07 09:24 26.01683 126.50508 37970 ft 475 kts 233°
2026-05-07 09:25 25.97261 126.45097 37962 ft 475 kts 233°
2026-05-07 09:25 25.92834 126.39684 37969 ft 475 kts 233°
2026-05-07 09:26 25.88380 126.34247 37967 ft 475 kts 233°
2026-05-07 09:26 25.84726 126.29789 37969 ft 475 kts 233°
2026-05-07 09:27 25.79540 126.23471 37965 ft 476 kts 233°
2026-05-07 09:28 25.73679 126.16341 37953 ft 477 kts 233°
2026-05-07 09:28 25.69176 126.10872 37969 ft 476 kts 233°
2026-05-07 09:29 25.64801 126.05619 37950 ft 469 kts 233°
2026-05-07 09:29 25.60380 126.00353 37962 ft 458 kts 233°
2026-05-07 09:30 25.56340 125.95483 37969 ft 449 kts 233°
2026-05-07 09:30 25.52202 125.90453 37949 ft 440 kts 234°
2026-05-07 09:31 25.48103 125.85464 37953 ft 431 kts 234°
2026-05-07 09:31 25.44133 125.80640 37948 ft 421 kts 234°
2026-05-07 09:32 25.40222 125.75899 37955 ft 413 kts 234°
2026-05-07 09:32 25.36382 125.71250 37956 ft 404 kts 235°
2026-05-07 09:33 25.32629 125.66717 37961 ft 395 kts 235°
2026-05-07 09:33 25.29006 125.62347 37953 ft 386 kts 236°
2026-05-07 09:34 25.25411 125.57996 37954 ft 376 kts 236°
2026-05-07 09:34 25.21987 125.53782 37950 ft 366 kts 236°
2026-05-07 09:35 25.18749 125.49781 37951 ft 357 kts 237°
2026-05-07 09:35 25.15496 125.45773 37956 ft 347 kts 237°
2026-05-07 09:36 25.12322 125.41871 37954 ft 335 kts 237°
2026-05-07 09:36 25.09317 125.38070 37911 ft 320 kts 246°
2026-05-07 09:36 25.08465 125.35865 37196 ft 316 kts 272°
2026-05-07 09:37 25.08920 125.33439 35529 ft 346 kts 309°
2026-05-07 09:37 25.10949 125.32002 34652 ft 373 kts 355°
2026-05-07 09:37 25.13287 125.32747 35129 ft 367 kts 40°
2026-05-07 09:37 25.14598 125.35019 35621 ft 366 kts 75°
2026-05-07 09:38 25.14651 125.37166 35073 ft 358 kts 109°
2026-05-07 09:38 25.15062 125.38663 28319 ft 197 kts 99°
2026-05-07 09:38 25.15226 125.39782 19123 ft 87 kts 134°
2026-05-07 09:38 25.15301 125.40423 10556 ft 101 kts 10°
2026-05-07 09:39 25.15397 125.40715 2935 ft 27 kts 209°
2026-05-07 09:39 25.15462 125.40847 10 ft 0 kts 225°
2026-05-07 09:40 25.15462 125.40846 9 ft 0 kts 225°